Location: ??????????
(54.8537°N, 38.8755°E)
Time: 10:19:02
(UTC+00:00)

Tiros 1 despin weight - Pass Details

Date: 13 September 2024
Orbit: 572 x 614 km, 48.2° (Epoch: 10 October)

Event Time Altitude Azimuth Distance (km) Brightness Sun altitude
Rises 01:52:50 0° 217° (SW) 2,876 - -9.3°
Exits shadow 01:54:16 - 211° (SSW) 2,385 ? -9.1°
Reaches altitude 10° 01:55:35 10° 201° (SSW) 1,977 ? -9.0°
Maximum altitude 01:58:57 21° 154° (SSE) 1,412 ? -8.5°
Drops below altitude 10° 02:02:20 10° 106° (ESE) 1,985 ? -8.0°
Sets 02:05:06 0° 90° (E) 2,891 ? -7.7°
